TimeCST,TemperatureF,Dew PointF,Humidity,Sea Level PressureIn,VisibilityMPH,Wind Direction,Wind SpeedMPH,Gust SpeedMPH,PrecipitationIn,Events,Conditions,WindDirDegrees,DateUTC
12:15 AM,41.0,41.0,100,30.33,10.0,NNW,3.5,-,N/A,,Clear,340,2012-11-17 06:15:00
12:35 AM,41.0,39.2,93,30.33,10.0,NNW,4.6,-,N/A,,Clear,340,2012-11-17 06:35:00
12:55 AM,41.0,39.2,93,30.32,10.0,North,4.6,-,N/A,,Clear,350,2012-11-17 06:55:00
1:15 AM,41.0,41.0,100,30.32,10.0,North,4.6,-,N/A,,Clear,350,2012-11-17 07:15:00
1:55 AM,41.0,39.2,93,30.31,10.0,Calm,Calm,-,N/A,,Clear,0,2012-11-17 07:55:00
2:15 AM,41.0,39.2,93,30.31,10.0,Calm,Calm,-,N/A,,Clear,0,2012-11-17 08:15:00
2:35 AM,41.0,39.2,93,30.31,10.0,Calm,Calm,-,N/A,,Clear,0,2012-11-17 08:35:00
2:55 AM,39.2,39.2,100,30.31,10.0,Calm,Calm,-,N/A,,Clear,0,2012-11-17 08:55:00
3:15 AM,39.2,39.2,100,30.31,10.0,Calm,Calm,-,N/A,,Clear,0,2012-11-17 09:15:00
3:35 AM,39.2,39.2,100,30.31,10.0,Calm,Calm,-,N/A,,Clear,0,2012-11-17 09:35:00
3:55 AM,39.2,39.2,100,30.31,10.0,Calm,Calm,-,N/A,,Clear,0,2012-11-17 09:55:00
4:15 AM,37.4,37.4,100,30.31,10.0,Calm,Calm,-,N/A,,Clear,0,2012-11-17 10:15:00
4:35 AM,39.2,39.2,100,30.31,10.0,Calm,Calm,-,N/A,,Clear,0,2012-11-17 10:35:00
4:55 AM,39.2,37.4,93,30.32,10.0,Calm,Calm,-,N/A,,Clear,0,2012-11-17 10:55:00
5:35 AM,37.4,37.4,100,30.33,10.0,Calm,Calm,-,N/A,,Clear,0,2012-11-17 11:35:00
5:55 AM,37.4,37.4,100,30.33,10.0,Calm,Calm,-,N/A,,Clear,0,2012-11-17 11:55:00
6:15 AM,37.4,37.4,100,30.34,10.0,Calm,Calm,-,N/A,,Clear,0,2012-11-17 12:15:00
6:55 AM,39.2,39.2,100,30.35,10.0,Calm,Calm,-,N/A,,Clear,0,2012-11-17 12:55:00
7:15 AM,44.6,39.2,81,30.36,10.0,North,3.5,-,N/A,,Clear,10,2012-11-17 13:15:00
7:35 AM,46.4,39.2,76,30.36,10.0,NNE,4.6,-,N/A,,Clear,30,2012-11-17 13:35:00
7:55 AM,48.2,39.2,71,30.37,10.0,NNE,3.5,-,N/A,,Clear,20,2012-11-17 13:55:00
8:15 AM,50.0,41.0,71,30.37,10.0,NNE,3.5,-,N/A,,Clear,20,2012-11-17 14:15:00
8:35 AM,51.8,41.0,67,30.38,10.0,NE,3.5,-,N/A,,Clear,40,2012-11-17 14:35:00
8:55 AM,53.6,42.8,67,30.38,10.0,NNE,3.5,-,N/A,,Clear,30,2012-11-17 14:55:00
9:15 AM,55.4,42.8,63,30.39,10.0,Calm,Calm,-,N/A,,Clear,0,2012-11-17 15:15:00
9:35 AM,57.2,44.6,63,30.39,10.0,NE,3.5,-,N/A,,Clear,50,2012-11-17 15:35:00
9:55 AM,59.0,44.6,59,30.38,10.0,NNE,5.8,-,N/A,,Clear,20,2012-11-17 15:55:00
10:15 AM,60.8,46.4,59,30.37,10.0,NE,3.5,-,N/A,,Clear,50,2012-11-17 16:15:00
11:35 AM,66.2,44.6,46,30.34,10.0,NNE,5.8,-,N/A,,Clear,30,2012-11-17 17:35:00
11:55 AM,66.2,44.6,46,30.33,10.0,NE,6.9,-,0.01,,Clear,50,2012-11-17 17:55:00
12:15 PM,68.0,44.6,43,30.33,10.0,NE,4.6,-,N/A,,Clear,40,2012-11-17 18:15:00
12:35 PM,68.0,44.6,43,30.32,10.0,NE,6.9,-,N/A,,Clear,50,2012-11-17 18:35:00
1:35 PM,68.0,42.8,40,30.30,10.0,NNE,4.6,-,N/A,,Clear,20,2012-11-17 19:35:00
1:55 PM,68.0,42.8,40,30.29,10.0,North,3.5,-,N/A,,Clear,350,2012-11-17 19:55:00
3:35 PM,68.0,42.8,40,30.28,10.0,North,8.1,-,N/A,,Clear,360,2012-11-17 21:35:00
3:55 PM,66.2,42.8,43,30.28,10.0,North,8.1,-,N/A,,Clear,360,2012-11-17 21:55:00
4:55 PM,60.8,46.4,59,30.29,10.0,Calm,Calm,-,N/A,,Clear,0,2012-11-17 22:55:00
5:15 PM,57.2,46.4,67,30.29,10.0,Calm,Calm,-,N/A,,Clear,0,2012-11-17 23:15:00
5:35 PM,55.4,46.4,72,30.30,10.0,Calm,Calm,-,N/A,,Clear,0,2012-11-17 23:35:00
5:55 PM,51.8,48.2,88,30.30,10.0,Calm,Calm,-,N/A,,Clear,0,2012-11-17 23:55:00
6:15 PM,50.0,46.4,87,30.31,10.0,Calm,Calm,-,N/A,,Clear,0,2012-11-18 00:15:00
6:35 PM,50.0,46.4,87,30.30,10.0,NNE,3.5,-,N/A,,Clear,20,2012-11-18 00:35:00
6:55 PM,46.4,44.6,93,30.31,10.0,Calm,Calm,-,N/A,,Clear,0,2012-11-18 00:55:00
7:15 PM,46.4,44.6,93,30.31,10.0,Calm,Calm,-,N/A,,Clear,0,2012-11-18 01:15:00
7:35 PM,46.4,44.6,93,30.32,10.0,Calm,Calm,-,N/A,,Clear,0,2012-11-18 01:35:00
7:55 PM,46.4,44.6,93,30.33,10.0,Calm,Calm,-,N/A,,Clear,0,2012-11-18 01:55:00
8:15 PM,48.2,46.4,93,30.33,10.0,Calm,Calm,-,N/A,,Clear,0,2012-11-18 02:15:00
8:35 PM,44.6,44.6,100,30.33,10.0,Calm,Calm,-,N/A,,Clear,0,2012-11-18 02:35:00
8:55 PM,44.6,42.8,93,30.34,10.0,Calm,Calm,-,N/A,,Clear,0,2012-11-18 02:55:00
9:15 PM,44.6,42.8,93,30.34,10.0,Calm,Calm,-,N/A,,Clear,0,2012-11-18 03:15:00
9:35 PM,44.6,42.8,93,30.35,10.0,Calm,Calm,-,N/A,,Clear,0,2012-11-18 03:35:00
9:55 PM,44.6,42.8,93,30.34,10.0,Calm,Calm,-,N/A,,Clear,0,2012-11-18 03:55:00
10:15 PM,42.8,42.8,100,30.35,10.0,Calm,Calm,-,N/A,,Clear,0,2012-11-18 04:15:00
10:35 PM,42.8,42.8,100,30.35,10.0,Calm,Calm,-,N/A,,Clear,0,2012-11-18 04:35:00
10:55 PM,42.8,41.0,93,30.35,10.0,Calm,Calm,-,N/A,,Clear,0,2012-11-18 04:55:00
11:15 PM,41.0,41.0,100,30.35,10.0,Calm,Calm,-,N/A,,Clear,0,2012-11-18 05:15:00
11:35 PM,41.0,41.0,100,30.34,10.0,Calm,Calm,-,N/A,,Clear,0,2012-11-18 05:35:00
11:55 PM,41.0,41.0,100,30.34,10.0,Calm,Calm,-,N/A,,Clear,0,2012-11-18 05:55:00